When you browse on this site, cookies collect data to enhance your experience and personalize the content and advertising you see.
Visit our Privacy Policy to learn more. By continuing to use the site, you agree to this use of cookies and data.
  • In Slovakia
  • List of Countries
  • For 7 days
  • Water Temperature
  • Satellite Maps
  • Weather Map
  • Weather Widgets
  • user-avatar
    Login

    Hourly Weather Algiers

    Today, 19 February, Tuesday

    Time Temperature Precipitation Wind Pressure Humidity
    00:00 +12°C° 0 mm 5 mps 751 mmHg 42%
    01:00 +12°C° 0 mm 5 mps 751 mmHg 44%
    02:00 +11°C° 0 mm 4 mps 751 mmHg 45%
    03:00 +11°C° 0 mm 4 mps 751 mmHg 47%
    04:00 +11°C° 0 mm 4 mps 751 mmHg 47%
    05:00 +11°C° 0 mm 4 mps 751 mmHg 46%
    06:00 +10°C° 0 mm 4 mps 751 mmHg 46%
    07:00 +11°C° 0 mm 3 mps 751 mmHg 45%
    08:00 +12°C° 0 mm 3 mps 751 mmHg 45%
    09:00 +14°C° 0 mm 3 mps 751 mmHg 44%
    10:00 +16°C° 0 mm 2 mps 751 mmHg 40%
    11:00 +19°C° 0 mm 1 mps 751 mmHg 37%
    12:00 +20°C° 0 mm 1 mps 751 mmHg 33%
    13:00 +19°C° 0 mm 2 mps 750 mmHg 35%
    14:00 +19°C° 0 mm 3 mps 750 mmHg 37%
    15:00 +18°C° 0 mm 3 mps 750 mmHg 38%
    16:00 +17°C° 0 mm 3 mps 750 mmHg 45%
    17:00 +16°C° 0 mm 3 mps 750 mmHg 52%
    18:00 +13°C° 0 mm 3 mps 750 mmHg 59%
    19:00 +13°C° 0 mm 3 mps 750 mmHg 60%
    20:00 +14°C° 0 mm 2 mps 751 mmHg 60%
    21:00 +13°C° 0 mm 2 mps 751 mmHg 61%
    22:00 +13°C° 0 mm 2 mps 751 mmHg 60%
    23:00 +13°C° 0 mm 1 mps 752 mmHg 58%

    Tomorrow, 20 February, Wednesday

    Time Temperature Precipitation Wind Pressure Humidity
    00:00 +13°C° 0 mm 1 mps 752 mmHg 57%
    01:00 +12°C° 0 mm 1 mps 752 mmHg 56%
    02:00 +12°C° 0 mm 1 mps 751 mmHg 55%
    03:00 +12°C° 0 mm 1 mps 751 mmHg 55%
    04:00 +12°C° 0 mm 1 mps 752 mmHg 55%
    05:00 +12°C° 0 mm 1 mps 752 mmHg 55%
    06:00 +11°C° 0 mm 1 mps 752 mmHg 55%
    07:00 +13°C° 0 mm 1 mps 752 mmHg 53%
    08:00 +14°C° 0 mm 1 mps 753 mmHg 52%
    09:00 +15°C° 0 mm 1 mps 753 mmHg 50%
    10:00 +16°C° 0 mm 2 mps 753 mmHg 50%
    11:00 +16°C° 0 mm 2 mps 753 mmHg 49%
    12:00 +17°C° 0 mm 3 mps 753 mmHg 49%
    13:00 +17°C° 0 mm 3 mps 753 mmHg 51%
    14:00 +17°C° 0 mm 3 mps 753 mmHg 53%
    15:00 +17°C° 0 mm 4 mps 753 mmHg 56%
    16:00 +16°C° 0 mm 3 mps 753 mmHg 62%
    17:00 +14°C° 0 mm 3 mps 754 mmHg 67%
    18:00 +13°C° 0 mm 2 mps 754 mmHg 73%
    19:00 +13°C° 0 mm 2 mps 754 mmHg 74%
    20:00 +13°C° 0 mm 2 mps 755 mmHg 76%
    21:00 +12°C° 0 mm 1 mps 755 mmHg 77%
    22:00 +12°C° 0 mm 1 mps 756 mmHg 77%
    23:00 +12°C° 0 mm 1 mps 756 mmHg 77%

    Day after tomorrow, 21 February, Thursday

    Time Temperature Precipitation Wind Pressure Humidity
    00:00 +11°C° 0 mm 1 mps 756 mmHg 78%
    01:00 +11°C° 0 mm 1 mps 756 mmHg 77%
    02:00 +11°C° 0 mm 1 mps 756 mmHg 77%
    03:00 +11°C° 0 mm 1 mps 756 mmHg 76%
    04:00 +11°C° 0 mm 1 mps 756 mmHg 76%
    05:00 +10°C° 0 mm 1 mps 756 mmHg 75%
    06:00 +10°C° 0 mm 1 mps 756 mmHg 75%
    07:00 +11°C° 0 mm 1 mps 757 mmHg 70%
    08:00 +13°C° 0 mm 1 mps 757 mmHg 65%
    09:00 +14°C° 0 mm 1 mps 758 mmHg 61%
    10:00 +15°C° 0 mm 1 mps 758 mmHg 58%
    11:00 +16°C° 0 mm 2 mps 758 mmHg 55%
    12:00 +17°C° 0 mm 2 mps 758 mmHg 52%
    13:00 +17°C° 0 mm 3 mps 758 mmHg 55%
    14:00 +17°C° 0 mm 3 mps 758 mmHg 58%
    15:00 +16°C° 0 mm 3 mps 758 mmHg 61%
    16:00 +14°C° 0 mm 3 mps 758 mmHg 68%
    17:00 +13°C° 0 mm 3 mps 758 mmHg 75%
    18:00 +12°C° 0 mm 3 mps 758 mmHg 82%
    19:00 +12°C° 0 mm 3 mps 759 mmHg 83%
    20:00 +13°C° 0 mm 2 mps 759 mmHg 84%
    21:00 +12°C° 0 mm 2 mps 760 mmHg 86%
    22:00 +12°C° 0 mm 2 mps 760 mmHg 86%
    23:00 +12°C° 0 mm 2 mps 760 mmHg 86%

    22 February, Friday

    Time Temperature Precipitation Wind Pressure Humidity
    00:00 +12°C° 0 mm 2 mps 760 mmHg 86%
    01:00 +10°C° 0 mm 2 mps 760 mmHg 85%
    02:00 +11°C° 0 mm 1 mps 759 mmHg 84%
    03:00 +11°C° 0 mm 1 mps 759 mmHg 84%
    04:00 +11°C° 0 mm 1 mps 759 mmHg 83%
    05:00 +11°C° 0 mm 1 mps 760 mmHg 82%
    06:00 +11°C° 0 mm 1 mps 760 mmHg 81%
    07:00 +12°C° 0 mm 1 mps 760 mmHg 76%
    08:00 +13°C° 0 mm 1 mps 760 mmHg 72%
    09:00 +14°C° 0 mm 1 mps 760 mmHg 67%
    10:00 +15°C° 0 mm 1 mps 760 mmHg 62%
    11:00 +16°C° 0 mm 2 mps 760 mmHg 58%
    12:00 +17°C° 0 mm 2 mps 759 mmHg 54%
    13:00 +17°C° 0 mm 2 mps 759 mmHg 55%
    14:00 +17°C° 0 mm 2 mps 759 mmHg 56%
    15:00 +17°C° 0 mm 3 mps 758 mmHg 57%
    16:00 +16°C° 0 mm 2 mps 758 mmHg 64%
    17:00 +14°C° 0 mm 2 mps 758 mmHg 70%
    18:00 +13°C° 0 mm 2 mps 758 mmHg 77%
    19:00 +13°C° 0 mm 2 mps 758 mmHg 79%
    20:00 +12°C° 0 mm 1 mps 759 mmHg 80%
    21:00 +12°C° 0 mm 1 mps 759 mmHg 81%
    22:00 +12°C° 0 mm 1 mps 759 mmHg 81%
    23:00 +12°C° 0 mm 1 mps 759 mmHg 80%

    23 February, Saturday

    Time Temperature Precipitation Wind Pressure Humidity
    00:00 +11°C° 0 mm 1 mps 759 mmHg 80%
    01:00 +11°C° 0 mm 1 mps 758 mmHg 78%
    02:00 +11°C° 0 mm 1 mps 758 mmHg 75%
    03:00 +11°C° 0 mm 1 mps 758 mmHg 73%
    04:00 +11°C° 0 mm 1 mps 758 mmHg 71%
    05:00 +10°C° 0 mm 1 mps 758 mmHg 70%
    06:00 +10°C° 0 mm 1 mps 758 mmHg 68%
    07:00 +12°C° 0 mm 1 mps 759 mmHg 62%
    08:00 +13°C° 0 mm 1 mps 759 mmHg 56%
    09:00 +13°C° 0 mm 0 mps 759 mmHg 49%
    10:00 +15°C° 0 mm 1 mps 759 mmHg 46%
    11:00 +16°C° 0 mm 1 mps 759 mmHg 43%
    12:00 +17°C° 0 mm 2 mps 759 mmHg 40%
    13:00 +17°C° 0 mm 2 mps 758 mmHg 42%
    14:00 +17°C° 0 mm 2 mps 758 mmHg 44%
    15:00 +17°C° 0 mm 2 mps 758 mmHg 46%
    16:00 +16°C° 0 mm 2 mps 758 mmHg 52%
    17:00 +15°C° 0 mm 2 mps 758 mmHg 59%
    18:00 +13°C° 0 mm 2 mps 758 mmHg 65%
    19:00 +13°C° 0 mm 2 mps 759 mmHg 66%
    20:00 +13°C° 0 mm 1 mps 759 mmHg 67%
    21:00 +12°C° 0 mm 1 mps 759 mmHg 68%
    22:00 +12°C° 0 mm 1 mps 759 mmHg 64%
    23:00 +12°C° 0 mm 1 mps 759 mmHg 61%

    24 February, Sunday

    Time Temperature Precipitation Wind Pressure Humidity
    00:00 +12°C° 0 mm 1 mps 758 mmHg 57%
    01:00 +12°C° 0 mm 1 mps 758 mmHg 55%
    02:00 +12°C° 0 mm 1 mps 758 mmHg 52%
    03:00 +12°C° 0 mm 1 mps 758 mmHg 50%
    04:00 +11°C° 0 mm 1 mps 758 mmHg 49%
    05:00 +11°C° 0 mm 1 mps 758 mmHg 49%
    06:00 +11°C° 0 mm 1 mps 758 mmHg 48%
    07:00 +13°C° 0 mm 1 mps 758 mmHg 46%
    08:00 +14°C° 0 mm 1 mps 758 mmHg 43%
    09:00 +15°C° 0 mm 1 mps 759 mmHg 41%
    10:00 +16°C° 0 mm 1 mps 758 mmHg 39%
    11:00 +19°C° 0 mm 1 mps 758 mmHg 37%
    12:00 +20°C° 0 mm 1 mps 758 mmHg 36%
    13:00 +20°C° 0 mm 1 mps 758 mmHg 36%
    14:00 +19°C° 0 mm 2 mps 757 mmHg 36%
    15:00 +19°C° 0 mm 2 mps 757 mmHg 37%
    16:00 +17°C° 0 mm 2 mps 757 mmHg 43%
    17:00 +16°C° 0 mm 1 mps 757 mmHg 48%
    18:00 +14°C° 0 mm 1 mps 757 mmHg 54%
    19:00 +14°C° 0 mm 1 mps 757 mmHg 55%
    20:00 +13°C° 0 mm 1 mps 758 mmHg 57%
    21:00 +13°C° 0 mm 1 mps 758 mmHg 58%
    22:00 +13°C° 0 mm 1 mps 758 mmHg 57%
    23:00 +12°C° 0 mm 1 mps 758 mmHg 57%
    Show more